Lid_Strength_Index
-1 -1 -1 -1 -1 -1 -1 -1 -1 -1 -1 -1 -1 -1 -1 -1 -1 -1 -1 -2 -1 -1 -1 -1 -1 -1 -1 -1 -1 -1 -1 -1 -1 -1 -1 -1 -2 -1 -2 -2 -2 -2 -1
-1 -1 -1 -1 -1 -1 -1 -1 -1 -1 -0 -1 -0 -1 -1 -1 -1 -1 -1 -1 -2 -1 -1 -1 -1 -1 -1 -1 -1 -1 -1 -1 -1 -1 -1 -1 -1 -1 -1 -2 -2 -2 -1
-2 -1 -1 -1 -1 -1 -1 -1 -1 -1 0 -0 -0 -0 -0 -1 -1 -1 -1 -1 -1 -2 -1 -1 -1 -1 -1 -1 -1 -1 -1 -1 -1 -1 -1 -1 -1 -1 -1 -1 -2 -2 -2
-2 -1 -0 -1 -1 -1 -1 -0 -0 0 0 0 0 -0 -0 -1 -1 -1 -1 -1 -1 -1 -2 -1 -1 -1 -1 -1 -1 -1 -2 -1 -1 -1 -1 -1 -1 -1 -1 -1 -2 -2 -2
-2 -1 -1 -1 -2 -1 -0 -0 -0 -0 1 1 0 0 -0 -0 -1 -1 -1 -1 -2 -1 -1 -2 -2 -2 -2 -1 -1 -1 -1 -1 -1 -1 -1 -1 -1 -1 -1 -1 -1 -1 -2
-1 -1 -1 -1 -1 -0 -0 0 0 -0 0 1 1 1 -0 -0 -1 -1 -1 -1 -1 -1 -2 -2 -2 -2 -2 -1 -1 -1 -1 -1 -1 -1 -1 -1 -1 -1 -1 -1 -1 -1 -2
-1 -1 -1 -1 -1 -1 -0 -0 0 0 1 -0 1 1 0 -0 -0 -0 -1 -1 -1 -1 -2 -2 -2 -1 -1 -2 -1 -0 -1 -1 -1 -1 -1 -1 -1 -1 -1 -1 -1 -1 -1
-1 -1 -1 -0 -1 0 -0 -0 0 1 1 -0 2 2 3 1 1 -0 -1 -1 -1 -1 -1 -1 -1 -1 -1 -1 -2 -1 -1 -1 -1 -1 -1 -1 -1 -1 -1 -1 -1 -1 -1
-1 -1 -1 -1 -1 -0 0 -0 -0 0 1 0 -0 2 4 4 2 0 -0 -0 -1 -0 -1 -1 -1 -1 -2 -1 -1 -1 -1 -1 -1 -1 -1 -1 -1 -1 -1 -1 -1 -1 -1
-1 -1 -1 -1 -1 -1 -1 -1 -1 -0 -0 1 0 -0 -0 1 4 4 1 -0 -0 -0 -1 -1 -1 -1 -2 -2 -2 -1 -1 -1 -1 -1 -1 -1 -1 -1 -1 -1 -1 -1 -1
-1 -1 -1 -1 -0 -0 -1 -1 -1 -1 -1 1 1 1 0 1 -0 2 4 2 0 -0 -0 -1 -1 -1 -2 -2 -2 -2 -1 -1 -1 -1 -1 -1 -1 -1 -1 -1 -1 -1 -1
0 1 1 0 -0 -1 -0 -0 -1 -0 -1 -0 0 1 2 2 2 2 3 2 2 1 1 -1 -1 -1 -1 -2 -2 -2 -2 -1 1 0 0 -1 -1 -1 -1 -1 -1 -1 -1
2 1 1 0 1 -1 -0 -0 -0 -0 -1 -0 -0 1 1 2 2 2 3 3 4 2 2 -0 -1 -1 -1 -2 -2 -2 -2 -1 -0 1 0 0 -0 -1 -1 -1 -1 -1 -1
2 1 1 2 1 0 1 1 1 1 0 1 1 0 2 2 3 3 3 3 4 4 3 1 0 -0 0 -1 -2 -2 -1 -1 -1 1 1 1 1 0 -0 -0 -1 -1 -1
2 2 2 1 2 2 1 0 2 2 2 2 1 1 2 2 2 3 3 3 4 6 5 3 3 -1 0 0 -0 -1 -2 -1 -2 0 1 1 1 2 1 0 -0 -0 -0
2 2 2 2 2 2 2 1 1 2 2 3 2 2 1 2 2 2 3 3 3 4 6 3 3 0 -1 0 -1 -1 -1 -1 -1 0 0 1 1 1 2 1 1 0 1
2 3 2 2 2 1 1 1 2 3 3 3 1 1 2 1 3 3 3 3 4 3 5 3 2 -0 -0 -1 -1 -1 -1 -2 -1 -1 -0 1 2 2 2 2 2 2 2
3 3 2 1 2 2 1 2 3 3 3 2 2 2 2 3 2 2 3 2 3 2 3 3 2 2 0 -1 -1 -1 0 0 -1 -0 -0 1 2 3 4 4 4 4 4
3 2 2 2 2 2 2 3 3 3 2 2 2 3 3 3 4 4 3 4 4 3 3 4 4 2 2 1 0 -1 -0 -1 -1 -1 0 1 2 3 4 5 5 5 6
2 2 1 2 2 2 3 3 3 3 2 2 3 3 4 4 4 4 5 5 4 5 4 4 4 4 3 1 2 3 2 1 0 -1 -1 1 1 2 4 4 4 5 6
2 2 1 2 2 3 4 3 3 3 3 3 4 4 4 5 6 6 6 6 6 7 6 6 6 5 5 5 5 3 3 2 0 -0 1 -0 -0 -0 2 4 4 5 6
2 2 2 2 2 5 8 7 6 5 5 5 5 4 4 4 5 6 6 7 6 6 6 7 7 7 5 5 3 4 4 3 4 -1 1 1 -0 0 -0 3 5 6 7
2 2 3 2 3 6 9 8 8 6 5 5 5 4 5 5 5 5 5 6 5 5 5 5 6 5 5 4 4 4 4 4 4 2 1 2 -0 0 -1 2 5 6 7
3 6 6 5 5 7 9 9 9 7 6 5 5 5 5 5 5 6 6 6 6 4 3 5 4 3 4 4 4 4 4 3 2 1 -0 3 0 1 -1 -1 4 5 7
7 7 7 7 7 7 9 9 9 7 6 6 6 5 5 6 7 8 6 7 5 4 4 5 5 5 6 6 6 5 5 5 5 3 0 1 1 1 1 1 1 4 7
10 9 10 9 9 9 9 10 10 9 7 7 6 5 8 8 10 9 6 5 6 5 5 4 4 4 4 4 5 4 4 5 4 4 -0 1 1 1 3 2 2 3 5